N8YZF Weather Reports


Display with metric or nautical units.
time (UTC)temp
F
wind
direction
speed
MPH
gust
MPH
rain 1hr
in
rain 24hr
in
rain mn
in
humidity
%
barometer
mb
20181211201324 28 269 0.0 0.0 0.00 0.00 0.00 90 1012.2
20181211200730 28 269 0.0 0.0 0.00 0.00 0.00 90 1012.2
20181211200204 28 269 0.0 0.0 0.00 0.01 0.00 90 1012.2
20181211195557 28 269 0.0 0.0 0.00 0.01 0.00 90 1012.1
20181211195023 28 269 0.0 0.0 0.00 0.01 0.00 90 1012.1
20181211194429 28 269 0.0 0.0 0.00 0.01 0.00 90 1012.2
20181211193850 28 269 0.0 0.0 0.00 0.01 0.00 89 1012.2
20181211193321 28 269 0.0 0.0 0.00 0.01 0.00 89 1012.2
20181211192817 28 269 0.0 0.0 0.00 0.01 0.00 89 1012.1
20181211192242 28 269 0.0 0.0 0.00 0.01 0.00 89 1012.1
20181211191710 28 269 0.0 0.0 0.00 0.01 0.00 88 1012.1
20181211191115 28 269 0.0 0.0 0.00 0.01 0.00 88 1012.1
20181211190529 28 269 0.0 0.0 0.00 0.01 0.00 88 1012.1
20181211185931 28 269 0.0 0.0 0.00 0.01 0.00 87 1012.1
20181211185319 28 269 0.0 0.0 0.00 0.02 0.00 87 1012.1
20181211184807 28 269 0.0 0.0 0.00 0.02 0.00 87 1012.1
20181211184217 28 269 0.0 0.0 0.00 0.02 0.00 87 1012.0
20181211183637 28 269 0.0 0.0 0.00 0.02 0.00 87 1012.0
20181211183100 28 269 0.0 0.0 0.00 0.02 0.00 87 1012.0
20181211182505 28 269 0.0 0.0 0.00 0.02 0.00 86 1012.0
20181211181926 28 269 0.0 0.0 0.00 0.02 0.00 87 1012.0
20181211181342 28 269 0.0 0.0 0.00 0.02 0.00 87 1012.0
20181211180728 28 269 0.0 0.0 0.00 0.03 0.00 86 1012.0
20181211180142 28 269 0.0 0.0 0.00 0.03 0.00 86 1012.0
20181211175555 28 269 0.0 0.0 0.00 0.03 0.00 87 1011.9
20181211175014 28 269 0.0 0.0 0.00 0.03 0.00 87 1011.9
20181211174431 28 268 0.0 0.0 0.00 0.03 0.00 87 1012.0
20181211173824 28 267 0.0 0.0 0.00 0.03 0.00 86 1012.0
20181211173243 28 269 0.0 0.0 0.00 0.03 0.00 86 1012.0
20181211172703 28 267 0.0 0.0 0.00 0.03 0.00 86 1012.0
20181211172113 28 267 0.0 0.0 0.00 0.03 0.00 86 1012.0
20181211171526 28 267 0.0 0.0 0.00 0.03 0.00 86 1012.0
20181211170925 27 267 0.0 0.0 0.00 0.03 0.00 86 1012.0
20181211170357 27 268 0.0 0.0 0.00 0.03 0.00 86 1012.0
20181211165824 27 267 0.0 0.0 0.00 0.03 0.00 86 1012.0
20181211165259 27 268 0.0 0.0 0.00 0.03 0.00 87 1012.0
20181211164723 27 268 0.0 0.0 0.00 0.03 0.00 87 1012.0
20181211164136 27 269 0.0 0.0 0.00 0.03 0.00 87 1012.4
20181211163535 27 267 1.0 5.0 0.00 0.03 0.00 87 1012.4
20181211162941 27 267 0.0 5.0 0.00 0.03 0.00 87 1012.5
20181211162402 27 279 0.0 0.0 0.00 0.03 0.00 87 1012.5
20181211161809 27 292 0.0 0.0 0.00 0.03 0.00 87 1012.5
20181211161224 27 292 0.0 0.0 0.00 0.03 0.00 87 1012.6
20181211160629 26 292 0.0 0.0 0.00 0.03 0.00 87 1012.5
20181211160059 26 292 0.0 0.0 0.00 0.03 0.00 88 1012.5
20181211155501 26 291 0.0 0.0 0.00 0.03 0.00 88 1012.5
20181211154927 26 347 1.0 0.0 0.00 0.03 0.00 88 1012.5
20181211154318 26 348 1.0 8.0 0.00 0.03 0.00 88 1012.4
20181211153744 26 339 0.0 4.0 0.00 0.03 0.00 88 1012.4
20181211153207 26 313 0.0 0.0 0.00 0.03 0.00 88 1012.4
20181211152614 26 300 2.0 6.0 0.00 0.03 0.00 88 1012.4
20181211152038 26 299 4.0 8.0 0.00 0.03 0.00 88 1012.4
20181211151444 26 286 3.0 11.0 0.00 0.03 0.00 88 1012.3
20181211150851 26 329 3.0 11.0 0.00 0.03 0.00 88 1012.3
20181211150324 26 289 2.0 7.0 0.00 0.03 0.00 88 1012.3
20181211145810 26 288 1.0 0.0 0.00 0.03 0.00 88 1012.0
20181211145231 26 320 1.0 5.0 0.00 0.03 0.00 88 1012.0
20181211144659 26 309 0.0 5.0 0.00 0.03 0.00 88 1012.0
20181211144106 26 306 1.0 6.0 0.00 0.03 0.00 88 1011.9
20181211143531 26 284 6.0 10.0 0.00 0.03 0.00 88 1011.9
20181211143016 26 281 6.0 13.0 0.00 0.03 0.00 88 1011.9
20181211142510 26 324 6.0 10.0 0.00 0.03 0.00 88 1011.7
20181211141939 26 315 7.0 12.0 0.00 0.03 0.00 88 1011.7
20181211141351 26 308 5.0 12.0 0.00 0.03 0.00 88 1011.4
20181211140821 26 311 5.0 11.0 0.00 0.03 0.00 88 1011.5
20181211140314 26 310 5.0 11.0 0.00 0.03 0.00 88 1011.5
20181211135809 26 313 7.0 11.0 0.00 0.03 0.00 88 1011.3
20181211135239 26 304 6.0 11.0 0.00 0.03 0.00 88 1011.3
20181211134704 26 284 5.0 8.0 0.00 0.03 0.00 88 1011.3
20181211134118 26 286 7.0 8.0 0.00 0.03 0.00 87 1011.3
20181211133538 26 263 6.0 11.0 0.00 0.03 0.00 87 1011.3
20181211132947 27 292 6.0 11.0 0.00 0.03 0.00 87 1011.1
20181211132414 27 277 6.0 11.0 0.00 0.03 0.00 88 1011.1
20181211131824 27 273 7.0 12.0 0.00 0.03 0.00 87 1011.1
20181211131306 27 309 4.0 12.0 0.00 0.03 0.00 87 1011.1
20181211130741 27 288 2.0 9.0 0.00 0.03 0.00 87 1011.1
20181211130205 27 281 3.0 9.0 0.00 0.03 0.00 87 1011.1
20181211125616 27 269 2.0 5.0 0.00 0.03 0.00 87 1011.0
20181211125044 27 286 4.0 11.0 0.00 0.03 0.00 87 1011.0
20181211124456 27 286 7.0 12.0 0.00 0.03 0.00 87 1010.9
20181211123915 27 260 5.0 12.0 0.00 0.03 0.00 87 1010.9
20181211123339 27 277 5.0 13.0 0.00 0.03 0.00 87 1010.9
20181211122814 27 269 3.0 13.0 0.00 0.03 0.00 87 1010.9
20181211122300 27 257 2.0 5.0 0.00 0.03 0.00 86 1010.9
20181211121721 27 255 5.0 8.0 0.00 0.03 0.00 86 1010.9
20181211121132 27 267 5.0 8.0 0.00 0.03 0.00 86 1010.9
20181211120537 27 273 5.0 7.0 0.00 0.03 0.00 86 1010.9
20181211115948 27 254 6.0 11.0 0.00 0.03 0.00 86 1011.0
20181211115417 27 251 6.0 13.0 0.00 0.03 0.00 86 1011.0
20181211114827 27 286 4.0 8.0 0.00 0.03 0.00 87 1011.0
20181211114310 27 286 4.0 8.0 0.00 0.03 0.00 87 1011.0
20181211113811 27 262 5.0 8.0 0.00 0.03 0.00 87 1011.0
20181211113234 27 281 4.0 8.0 0.00 0.03 0.00 87 1011.1
20181211112646 27 281 4.0 7.0 0.00 0.03 0.00 87 1011.0
20181211112110 27 274 5.0 6.0 0.00 0.03 0.00 87 1011.0
20181211111519 27 294 5.0 6.0 0.00 0.03 0.00 87 1010.9
20181211110926 27 285 4.0 7.0 0.00 0.03 0.00 87 1010.9
20181211110351 27 286 4.0 6.0 0.00 0.03 0.00 87 1010.9
20181211105821 28 289 5.0 7.0 0.00 0.03 0.00 86 1010.7
20181211105308 28 278 7.0 13.0 0.00 0.03 0.00 86 1010.7
20181211104719 28 267 7.0 13.0 0.00 0.03 0.00 85 1010.7
20181211104128 28 270 7.0 9.0 0.00 0.03 0.00 85 1010.6
20181211103548 28 272 8.0 14.0 0.00 0.03 0.00 85 1010.6
20181211102955 28 276 7.0 14.0 0.00 0.03 0.00 85 1010.7
20181211102418 28 294 8.0 12.0 0.00 0.03 0.00 85 1010.7
20181211101842 29 281 9.0 15.0 0.00 0.03 0.00 85 1010.7
20181211101318 29 294 8.0 15.0 0.00 0.03 0.00 85 1010.7
20181211100748 29 281 8.0 13.0 0.00 0.03 0.00 85 1010.7
20181211100209 29 266 7.0 13.0 0.00 0.03 0.00 85 1010.7
20181211095613 29 244 8.0 10.0 0.00 0.03 0.00 85 1010.8
20181211095040 29 249 7.0 13.0 0.00 0.03 0.00 84 1010.8
20181211094450 29 252 8.0 16.0 0.00 0.03 0.00 84 1010.7
20181211093910 29 256 8.0 14.0 0.00 0.03 0.00 83 1010.8
20181211093335 30 246 6.0 6.0 0.00 0.03 0.00 83 1010.8
20181211092822 30 247 6.0 11.0 0.00 0.03 0.00 83 1011.2
20181211092242 30 249 7.0 12.0 0.00 0.03 0.00 82 1011.2
20181211091716 30 247 8.0 17.0 0.00 0.03 0.00 83 1011.2
20181211091115 30 265 9.0 17.0 0.00 0.03 0.00 82 1011.2
20181211090515 30 236 8.0 12.0 0.00 0.03 0.00 82 1011.2
20181211085923 31 239 9.0 12.0 0.00 0.03 0.00 82 1011.4
20181211085350 31 250 9.0 19.0 0.00 0.03 0.00 82 1011.4
20181211084815 31 265 9.0 19.0 0.00 0.03 0.00 82 1011.4
20181211084308 31 236 10.0 14.0 0.00 0.03 0.00 82 1011.6
20181211083739 31 273 8.0 14.0 0.00 0.03 0.00 81 1011.6
20181211083203 31 280 7.0 12.0 0.00 0.03 0.00 82 1011.6
20181211082608 31 290 8.0 12.0 0.00 0.03 0.00 82 1011.8
20181211082030 31 252 8.0 11.0 0.00 0.03 0.00 82 1011.8
20181211081430 31 257 8.0 11.0 0.00 0.03 0.00 83 1011.6
20181211080838 31 265 8.0 15.0 0.00 0.03 0.00 83 1011.6
20181211080325 31 279 8.0 15.0 0.00 0.03 0.00 83 1011.6
20181211075758 31 269 8.0 13.0 0.00 0.03 0.00 83 1011.5
20181211075222 31 227 6.0 13.0 0.00 0.03 0.00 83 1011.5
20181211074641 31 236 7.0 13.0 0.00 0.03 0.00 83 1011.5
20181211074052 31 256 7.0 13.0 0.00 0.03 0.00 83 1011.6
20181211073517 31 258 8.0 15.0 0.00 0.03 0.00 83 1011.6
20181211072924 31 276 7.0 15.0 0.00 0.03 0.00 83 1011.6
20181211072342 31 269 6.0 10.0 0.00 0.03 0.00 83 1011.6
20181211071824 31 254 5.0 10.0 0.00 0.03 0.00 83 1011.6
20181211071305 31 263 5.0 10.0 0.00 0.03 0.00 83 1011.6
20181211070709 31 254 4.0 10.0 0.00 0.03 0.00 83 1011.6
20181211070141 31 276 4.0 7.0 0.00 0.03 0.00 84 1011.6
20181211065551 32 236 5.0 10.0 0.00 0.03 0.00 83 1011.7
20181211065014 32 248 5.0 10.0 0.00 0.03 0.00 83 1011.7
20181211064423 32 245 6.0 7.0 0.00 0.03 0.00 83 1011.9
20181211063815 32 250 6.0 12.0 0.00 0.03 0.00 83 1011.9
20181211063306 32 238 6.0 12.0 0.00 0.03 0.00 83 1011.9
20181211062804 32 263 6.0 11.0 0.00 0.03 0.00 83 1012.0
20181211062234 32 234 6.0 11.0 0.00 0.03 0.00 83 1012.0
20181211061702 32 231 6.0 8.0 0.00 0.03 0.00 83 1012.0
20181211061110 32 265 7.0 19.0 0.00 0.03 0.00 83 1012.0
20181211060519 32 270 7.0 19.0 0.00 0.03 0.00 83 1012.0
20181211055927 32 261 7.0 8.0 0.00 0.03 0.00 83 1012.0
20181211055356 32 258 8.0 12.0 0.00 0.03 0.00 82 1012.0
20181211054832 32 248 8.0 12.0 0.00 0.03 0.00 82 1012.0
20181211054330 32 261 7.0 13.0 0.00 0.03 0.00 82 1012.2
20181211053821 32 226 7.0 13.0 0.00 0.03 0.00 82 1012.2
20181211053320 32 232 7.0 12.0 0.00 0.03 0.00 82 1012.2
20181211052817 32 236 7.0 12.0 0.00 0.03 0.00 82 1012.5
20181211052247 32 250 7.0 12.0 0.00 0.03 0.00 82 1012.5
20181211051710 32 261 6.0 11.0 0.00 0.03 0.00 82 1012.5
20181211051117 32 248 6.0 12.0 0.00 0.03 0.00 82 1012.6
20181211050516 32 257 5.0 11.0 0.00 0.03 0.00 83 1012.6
20181211045922 32 211 6.0 8.0 0.00 0.03 0.03 83 1012.7
20181211045321 32 212 6.0 14.0 0.00 0.03 0.03 83 1012.7
20181211044817 32 272 6.0 14.0 0.00 0.03 0.03 83 1012.7
20181211044310 32 248 5.0 14.0 0.00 0.03 0.03 84 1012.8
20181211043734 32 234 6.0 14.0 0.00 0.03 0.03 84 1012.8
20181211043153 32 254 7.0 11.0 0.00 0.03 0.03 84 1012.7
20181211042555 31 238 8.0 15.0 0.00 0.03 0.03 84 1012.9
20181211042018 31 253 8.0 15.0 0.00 0.03 0.03 84 1012.9
20181211041515 31 261 7.0 13.0 0.00 0.03 0.03 84 1012.9
20181211040936 31 236 6.0 11.0 0.00 0.03 0.03 85 1013.0
20181211040401 31 245 6.0 8.0 0.00 0.03 0.03 85 1013.0
20181211035818 31 243 6.0 11.0 0.00 0.03 0.03 85 1013.0
20181211035307 31 248 7.0 10.0 0.00 0.03 0.03 86 1013.0
20181211034750 31 228 6.0 9.0 0.00 0.03 0.03 85 1013.0
20181211034159 31 247 5.0 8.0 0.00 0.03 0.03 86 1013.3
20181211033621 31 244 4.0 8.0 0.00 0.03 0.03 86 1013.3
20181211033026 31 258 3.0 7.0 0.00 0.03 0.03 86 1013.4
20181211032457 31 255 4.0 7.0 0.00 0.03 0.03 87 1013.4
20181211031922 31 242 4.0 7.0 0.00 0.03 0.03 87 1013.4
20181211031326 31 223 5.0 7.0 0.00 0.03 0.03 86 1013.5
20181211030823 31 231 4.0 7.0 0.00 0.03 0.03 86 1013.5
20181211030246 31 226 4.0 8.0 0.00 0.03 0.03 86 1013.5
20181211025650 31 221 4.0 8.0 0.00 0.03 0.03 86 1013.5
20181211025113 31 225 5.0 11.0 0.00 0.03 0.03 86 1013.5
20181211024517 31 217 5.0 11.0 0.00 0.03 0.03 86 1013.7
20181211023936 31 225 4.0 10.0 0.00 0.03 0.03 86 1013.7
20181211023401 31 239 5.0 11.0 0.00 0.03 0.03 85 1013.7
20181211022825 31 213 5.0 7.0 0.00 0.03 0.03 85 1013.8
20181211022316 31 219 5.0 8.0 0.00 0.03 0.03 85 1013.8
20181211021813 31 228 6.0 8.0 0.00 0.03 0.03 85 1013.9
20181211021307 31 236 4.0 8.0 0.00 0.03 0.03 85 1014.0
20181211020709 31 205 4.0 13.0 0.00 0.03 0.03 85 1014.0
20181211020132 31 201 3.0 13.0 0.00 0.03 0.03 85 1014.0
20181211015545 31 224 4.0 8.0 0.00 0.03 0.03 85 1014.2
20181211015008 31 219 4.0 8.0 0.00 0.03 0.03 85 1014.2
20181211014415 31 211 3.0 8.0 0.00 0.03 0.03 85 1014.2
20181211013819 31 216 2.0 8.0 0.00 0.03 0.03 85 1014.2
20181211013250 31 224 3.0 7.0 0.00 0.03 0.03 85 1014.2
20181211012658 31 233 5.0 8.0 0.00 0.03 0.03 85 1014.2
20181211012121 31 218 6.0 8.0 0.00 0.03 0.03 84 1014.2
20181211011515 31 222 5.0 8.0 0.00 0.03 0.03 84 1014.2
20181211010927 31 218 5.0 8.0 0.00 0.03 0.03 84 1014.3
20181211010354 31 228 5.0 8.0 0.00 0.03 0.03 84 1014.3
20181211005826 31 223 5.0 8.0 0.00 0.03 0.03 83 1014.7
20181211005324 31 213 5.0 10.0 0.00 0.03 0.03 83 1014.7
20181211004824 31 216 4.0 10.0 0.00 0.03 0.03 83 1014.7
20181211004244 30 232 4.0 11.0 0.00 0.03 0.03 83 1014.7
20181211003715 30 243 5.0 11.0 0.00 0.03 0.03 83 1014.7
20181211003134 30 216 6.0 10.0 0.00 0.03 0.03 82 1014.7
20181211002543 30 213 7.0 14.0 0.00 0.03 0.03 81 1014.7
20181211002008 30 217 7.0 14.0 0.00 0.03 0.03 81 1014.7
20181211001418 30 202 8.0 14.0 0.00 0.03 0.03 80 1015.1
20181211000833 30 231 8.0 11.0 0.00 0.03 0.03 79 1015.1
20181211000315 30 215 6.0 13.0 0.00 0.03 0.03 78 1015.1
20181210235817 30 248 4.0 13.0 0.00 0.03 0.03 78 1015.3
20181210235317 30 218 4.0 8.0 0.00 0.03 0.03 77 1015.3
20181210234813 30 219 5.0 11.0 0.00 0.03 0.03 77 1015.3
20181210234312 30 219 3.0 11.0 0.00 0.03 0.03 76 1015.6
20181210233811 30 217 1.0 8.0 0.00 0.03 0.03 75 1015.6
20181210233308 30 207 1.0 8.0 0.00 0.03 0.03 75 1015.6
20181210232747 30 224 0.0 0.0 0.00 0.03 0.03 75 1015.9
20181210232210 30 224 1.0 3.0 0.00 0.03 0.03 74 1015.9
20181210231640 30 224 2.0 8.0 0.00 0.03 0.03 74 1015.9
20181210231026 30 236 2.0 7.0 0.00 0.03 0.03 74 1015.9
20181210230450 30 240 2.0 6.0 0.00 0.03 0.03 74 1015.9
20181210225901 31 233 2.0 6.0 0.00 0.03 0.03 74 1015.9
20181210225331 31 237 2.0 6.0 0.00 0.03 0.03 73 1015.9
20181210224813 31 225 3.0 7.0 0.00 0.03 0.03 73 1016.0
20181210224242 31 220 3.0 7.0 0.00 0.03 0.03 72 1015.8
20181210223702 31 227 4.0 7.0 0.00 0.03 0.03 72 1015.8
20181210223128 31 216 5.0 10.0 0.00 0.03 0.03 71 1015.8
20181210222538 31 219 6.0 10.0 0.00 0.03 0.03 71 1015.8
20181210221959 32 219 7.0 12.0 0.00 0.03 0.03 70 1015.8
20181210221407 32 211 7.0 10.0 0.00 0.03 0.03 70 1015.9
20181210220832 32 225 7.0 11.0 0.00 0.03 0.03 70 1015.9
20181210220314 32 205 6.0 10.0 0.00 0.03 0.03 70 1015.9
20181210215737 33 220 5.0 7.0 0.00 0.03 0.03 70 1016.1
20181210215204 33 210 6.0 13.0 0.00 0.03 0.03 69 1016.1
20181210214632 33 214 6.0 13.0 0.00 0.03 0.03 68 1016.1
20181210214044 33 221 6.0 10.0 0.00 0.03 0.03 67 1016.4
20181210213509 34 240 5.0 10.0 0.00 0.03 0.03 66 1016.4
20181210212919 34 225 5.0 8.0 0.00 0.03 0.03 66 1016.6
20181210212322 35 236 6.0 8.0 0.00 0.03 0.03 65 1016.6
20181210211817 35 235 6.0 12.0 0.00 0.03 0.03 65 1016.7
20181210211300 35 224 6.0 12.0 0.00 0.03 0.03 64 1016.7
20181210210704 35 224 7.0 13.0 0.00 0.04 0.03 64 1016.7
20181210210131 35 229 8.0 13.0 0.01 0.04 0.03 64 1016.7
20181210205539 35 221 7.0 9.0 0.01 0.04 0.03 63 1016.8
20181210205006 36 232 7.0 12.0 0.01 0.04 0.03 63 1016.8
20181210204413 36 217 7.0 12.0 0.01 0.04 0.03 63 1016.8
20181210203822 36 242 6.0 10.0 0.01 0.04 0.03 64 1016.8
20181210203242 36 243 6.0 10.0 0.01 0.04 0.03 65 1016.8
20181210202643 36 225 6.0 11.0 0.01 0.04 0.03 66 1016.9
20181210202108 36 246 6.0 11.0 0.01 0.04 0.03 67 1016.9